FW0562 Weather Reports


time (UTC)temp
C
wind
direction
speed
KPH
gust
KPH
rain 1hr
cm
rain 24hr
cm
rain mn
cm
humidity
%
barometer
mb
20260510091529 15 9 3.2 17.7 0.00 0.00 0.00 72 1013.7
20260510090031 15 19 4.8 14.5 0.00 0.00 0.00 72 1013.7
20260510084550 14 37 4.8 14.5 0.00 0.00 0.00 73 1013.9
20260510083029 14 11 3.2 11.3 0.00 0.00 0.00 74 1014.0
20260510081528 13 46 3.2 11.3 0.00 0.00 0.00 76 1014.0
20260510080031 13 348 4.8 12.9 0.00 0.00 0.00 78 1014.0
20260510073029 12 346 4.8 14.5 0.00 0.00 0.00 80 1014.3
20260510071537 12 9 4.8 14.5 0.00 0.00 0.00 82 1014.3
20260510070031 11 10 3.2 9.7 0.00 0.00 0.00 83 1014.3
20260510064531 11 355 3.2 12.9 0.00 0.00 0.00 84 1014.3
20260510063027 11 11 3.2 12.9 0.00 0.00 0.00 85 1014.4
20260510060028 10 9 1.6 8.0 0.00 0.00 0.00 86 1014.2
20260510053019 10 350 0.0 0.0 0.00 0.00 0.00 87 1014.2
20260510050030 9 12 0.0 0.0 0.00 0.00 0.00 87 1014.2
20260510044523 9 13 0.0 0.0 0.00 0.00 0.00 87 1014.3
20260510043011 9 13 0.0 0.0 0.00 0.00 0.00 87 1014.2
20260510041511 9 15 0.0 0.0 0.00 0.00 0.00 86 1014.2
20260510040015 9 15 0.0 0.0 0.00 0.00 0.00 86 1014.2
20260510034514 9 15 0.0 0.0 0.00 0.00 0.00 86 1014.1
20260510033014 9 19 0.0 0.0 0.00 0.00 0.00 85 1014.2
20260510031501 9 20 0.0 0.0 0.00 0.00 0.00 85 1014.2
20260510024501 10 20 0.0 0.0 0.00 0.00 0.00 83 1014.5
20260510023011 10 28 0.0 0.0 0.00 0.00 0.00 83 1014.4
20260510021438 10 28 0.0 0.0 0.00 0.00 0.00 84 1014.4
20260510014429 10 28 0.0 0.0 0.00 0.00 0.00 84 1014.6
20260510012929 10 28 0.0 0.0 0.00 0.00 0.00 83 1014.7
20260510011429 10 28 0.0 0.0 0.00 0.00 0.00 84 1014.8
20260510005928 10 28 0.0 0.0 0.00 0.00 0.00 85 1014.9
20260510004426 10 28 0.0 0.0 0.00 0.00 0.00 83 1014.9
20260510002904 10 28 0.0 0.0 0.00 0.00 0.00 80 1015.0
20260510001401 10 28 0.0 0.0 0.00 0.00 0.00 80 1015.1
20260509235905 11 28 0.0 0.0 0.00 0.00 0.00 80 1015.1
20260509232901 11 28 0.0 0.0 0.00 0.00 0.00 79 1015.2
20260509231403 11 28 0.0 0.0 0.00 0.00 0.00 80 1015.3
20260509225901 11 28 0.0 0.0 0.00 0.00 0.00 81 1015.3
20260509224405 11 28 0.0 0.0 0.00 0.00 0.00 80 1015.3
20260509222901 11 28 0.0 0.0 0.00 0.00 0.00 80 1015.4
20260509212901 11 28 0.0 0.0 0.00 0.00 0.00 80 1015.5
20260509211403 11 28 0.0 0.0 0.00 0.00 0.00 79 1015.5
20260509205901 12 28 0.0 0.0 0.00 0.00 0.00 77 1015.2
20260509204401 12 28 0.0 0.0 0.00 0.00 0.00 76 1015.4
20260509202902 12 28 0.0 0.0 0.00 0.00 0.00 74 1015.3
20260509201402 13 28 0.0 0.0 0.00 0.00 0.00 71 1015.4
20260509195901 14 28 0.0 0.0 0.00 0.00 0.00 68 1015.2
20260509191343 16 28 0.0 0.0 0.00 0.00 0.00 61 1015.2
20260509185831 18 28 0.0 0.0 0.00 0.00 0.00 57 1015.1
20260509184329 19 28 0.0 1.6 0.00 0.00 0.00 55 1015.0
20260509182831 20 28 0.0 1.6 0.00 0.00 0.00 53 1015.0
20260509175829 20 46 0.0 1.6 0.00 0.00 0.00 49 1015.1
20260509172829 20 5 1.6 8.0 0.00 0.00 0.00 46 1014.9
20260509171327 21 13 1.6 8.0 0.00 0.00 0.00 46 1014.9
20260509164321 21 0 1.6 9.7 0.00 0.00 0.00 49 1015.1
20260509162812 21 349 1.6 9.7 0.00 0.00 0.00 44 1015.0
20260509161303 21 0 3.2 8.0 0.00 0.00 0.00 43 1015.0
20260509155804 21 355 3.2 9.7 0.00 0.00 0.00 47 1015.0
20260509154303 21 355 0.0 8.0 0.00 0.00 0.00 46 1015.2
20260509152801 21 66 1.6 9.7 0.00 0.00 0.00 50 1015.4
20260509151304 20 37 1.6 11.3 0.00 0.00 0.00 49 1015.4
20260509145801 21 355 3.2 14.5 0.00 0.00 0.00 48 1015.4
20260509144303 21 351 3.2 11.3 0.00 0.00 0.00 48 1015.6
20260509142801 21 103 1.6 9.7 0.00 0.00 0.00 47 1015.7
20260509141302 21 9 3.2 9.7 0.00 0.00 0.00 48 1015.9
20260509135801 21 5 1.6 11.3 0.00 0.00 0.00 50 1016.0
20260509134301 21 70 0.0 9.7 0.00 0.00 0.00 51 1016.0
20260509132801 20 94 1.6 9.7 0.00 0.00 0.00 49 1016.0
20260509131301 19 49 1.6 8.0 0.00 0.00 0.00 49 1016.3
20260509125801 19 63 1.6 6.4 0.00 0.00 0.00 52 1016.5
20260509124301 20 81 1.6 9.7 0.00 0.00 0.00 51 1016.6
20260509122804 20 342 3.2 12.9 0.00 0.00 0.00 48 1016.7
20260509115802 20 9 3.2 9.7 0.00 0.00 0.00 47 1017.0
20260509114302 20 70 1.6 8.0 0.00 0.00 0.00 50 1017.1
20260509111304 20 99 1.6 12.9 0.00 0.00 0.00 50 1017.5
20260509104301 19 108 3.2 11.3 0.00 0.00 0.00 50 1017.6
20260509102801 19 131 3.2 12.9 0.00 0.00 0.00 53 1017.7
20260509101305 18 350 4.8 11.3 0.00 0.00 0.00 52 1017.7
20260509095801 18 57 3.2 12.9 0.00 0.00 0.00 54 1017.7
20260509094301 18 355 3.2 12.9 0.00 0.00 0.00 55 1017.6
20260509092802 18 102 3.2 9.7 0.00 0.00 0.00 54 1017.8